Weather observations for the past three days for
Ashtabula - Northeast Ohio Regional Airport
Imperial (Metric)
Date Time (edt) Wind (mph) Vis. (mi.) Weather Sky Cond. Temperature (ºF) Relative Humidity Wind Chill (°F) Heat Index (°F) Pressure Precipitation (in)
Air Dwpt 6 hour altimeter (in) sea level (mb) 1 hr 3 hr 6 hr
Max. Min.
03 02:53 SW 6 6.00 Fog/Mist FEW110 68 66.9 96% 29.97 1014.0 0.23
03 01:53 W 38 G 59 1.25 Thunderstorm Rain Fog/Mist Squalls and Windy FEW008 SCT065 BKN110 71.1 69.1 81 71.1 94% 30.04 1016.4 0.17 0.17
03 00:53 Vrbl 5 6.00 Partly Cloudy with Haze SCT110 75 69.1 82% 75 29.96 1013.8
02 23:53 SE 7 6.00 A Few Clouds with Haze FEW100 73.9 68 82% 29.94 1012.9
02 22:53 E 8 7.00 Mostly Cloudy BKN055 75.9 68 77% 77 29.96 1013.8
02 21:53 SW 6 5.00 Fair with Haze CLR 78.1 66.9 69% 80 29.96 1013.7
02 20:53 S 3 8.00 Fair CLR 77 68 74% 79 29.96 1013.9
02 19:53 S 5 10.00 Fair CLR 81 70 91.9 81 69% 84 29.96 1013.6
02 18:53 S 7 10.00 Fair CLR 86 73 65% 93 29.94 1013.1
02 17:53 W 6 10.00 Fair CLR 90 70 52% 95 29.95 1013.1
02 16:53 W 12 10.00 Fair CLR 91 68 47% 95 29.95 1013.1
02 15:53 SW 9 10.00 Fair CLR 91.9 70 49% 98 29.98 1014.1
02 14:53 SW 12 10.00 Fair CLR 91 70 50% 97 29.99 1014.6
02 13:53 SW 9 10.00 A Few Clouds FEW033 89.1 75 89.1 72 63% 99 30.01 1015.2
02 12:53 SW 9 10.00 A Few Clouds FEW023 87.1 75.9 70% 98 30.02 1015.7
02 11:53 SW 8 10.00 A Few Clouds FEW095 84 75.9 77% 93 30.04 1016.2
02 10:53 SE 10 10.00 A Few Clouds FEW085 79 73 82% 82 30.04 1016.6
02 09:53 SE 6 10.00 A Few Clouds FEW100 77 73 88% 78 30.04 1016.5
02 08:53 E 8 10.00 Partly Cloudy FEW024 FEW100 SCT120 73 71.1 94% 30.03 1016.3
02 07:53 NE 8 10.00 Thunderstorm FEW017 BKN027 OVC050 73.9 69.1 73.9 70 85% 30.04 1016.6
02 06:53 S 6 10.00 Mostly Cloudy BKN100 73 70 90% 29.98 1014.5
02 05:53 SW 5 9.00 Mostly Cloudy BKN100 73 71.1 94% 30 1015.2
02 04:53 S 5 8.00 Partly Cloudy FEW035 SCT100 72 70 94% 30.01 1015.3
02 03:53 Calm 9.00 A Few Clouds FEW036 71.1 70 96% 30.01 1015.3
02 02:53 Calm 10.00 A Few Clouds FEW060 71.1 68 90% 30.01 1015.5
02 01:53 Calm 10.00 A Few Clouds FEW034 72 68 78.1 71.1 87% 30.02 1015.6
02 00:53 Calm 10.00 Fair CLR 71.1 68 90% 30.01 1015.6
01 23:53 W 6 10.00 Fair CLR 73 66.9 81% 30.01 1015.3
01 22:53 SW 3 10.00 Fair CLR 73.9 69.1 85% 30 1015.1
01 21:53 Calm 10.00 Fair CLR 72 71.1 97% 30.01 1015.3
01 20:53 Calm 10.00 Fair CLR 75 72 90% 74 29.99 1014.6
01 19:53 Calm 10.00 Fair CLR 79 73 89.1 79 82% 82 29.98 1014.5
01 18:53 W 6 10.00 Fair CLR 82.9 72 70% 88 29.99 1014.7
01 17:53 NW 8 10.00 Fair CLR 82.9 73.9 74% 89 29.98 1014.6
01 16:53 NW 8 10.00 Partly Cloudy FEW043 SCT050 SCT120 82.9 73.9 74% 89 29.99 1014.8
01 15:53 NW 3 10.00 Fair CLR 88 75 66% 98 29.97 1014.0
01 14:53 W 7 10.00 Fair CLR 88 73.9 63% 97 29.99 1014.5
01 13:53 W 7 10.00 Fair CLR 86 73 86 73 65% 93 30 1015.0
01 12:53 W 9 10.00 Fair CLR 84.9 73 68% 92 30.01 1015.5
01 11:53 W 10 10.00 A Few Clouds FEW026 84 72 67% 90 30.01 1015.4
01 10:53 W 9 10.00 A Few Clouds FEW024 82.9 73 72% 89 30.01 1015.3
01 09:53 W 7 10.00 Fair CLR 81 72 74% 85 30 1015.1
01 08:53 SW 7 10.00 Fair CLR 78.1 71.1 79% 80 30.01 1015.3
01 07:53 SW 5 10.00 A Few Clouds FEW046 73 70 75 72 90% 30 1015.3
01 06:53 S 3 10.00 Fair CLR 72 69.1 91% 30 1015.1
01 05:53 SW 6 10.00 Mostly Cloudy BKN050 73 69.1 87% 29.99 1014.7
01 04:53 SW 7 10.00 Mostly Cloudy BKN090 73 70 90% 29.99 1014.8
01 03:53 SW 10 10.00 Light Rain OVC090 75 70 84% 75 29.99 1014.9
01 02:53 S 7 10.00 Overcast OVC095 73 69.1 87% 30 1015.0
01 01:53 S 3 10.00 Mostly Cloudy BKN110 72 68 73.9 70 87% 30.02 1015.6
01 00:53 S 7 10.00 Overcast OVC100 71.1 69.1 94% 30.02 1015.9
31 23:53 S 5 9.00 Light Rain OVC110 72 69.1 91% 30.03 1016.0
31 22:53 Calm 10.00 Mostly Cloudy BKN100 71.1 69.1 94% 30.03 1016.4
31 21:53 SE 5 10.00 A Few Clouds FEW075 71.1 69.1 94% 30.03 1016.3
31 20:53 SE 6 10.00 Fair CLR 73 70 90% 30.03 1016.3
31 19:53 Calm 9.00 Fair CLR 73 71.1 84.9 73 94% 30.04 1016.6
31 18:53 NE 3 10.00 Fair CLR 75.9 71.1 85% 76 30.03 1016.4
31 17:53 W 5 10.00 A Few Clouds FEW110 79 70 74% 82 30.03 1016.3
31 16:53 W 3 10.00 Fair CLR 80.1 70 71% 83 30.06 1017.1
31 15:53 W 6 10.00 Light Rain BKN110 78.1 66.9 69% 80 30.06 1017.3
31 14:53 W 5 10.00 A Few Clouds FEW075 82 68 63% 85 30.07 1017.6
31 13:53 SW 5 10.00 Mostly Cloudy BKN100 BKN110 82 71.1 82 66.9 69% 86 30.08 1017.8
31 12:53 SW 7 10.00 Overcast OVC085 79 69.1 72% 82 30.08 1017.9
31 11:53 SW 7 10.00 Fair CLR 80.1 69.1 69% 83 30.09 1018.2
31 10:53 SW 9 10.00 A Few Clouds FEW085 77 68 74% 79 30.09 1018.5
31 09:53 S 8 10.00 Partly Cloudy SCT085 73 66.9 81% 30.08 1018.0
31 08:53 S 6 10.00 Mostly Cloudy FEW050 SCT060 BKN090 69.1 64.9 87% 30.1 1018.8
31 07:53 S 7 10.00 A Few Clouds FEW060 66.9 64 66.9 66 91% 30.09 1018.6
31 06:53 S 5 10.00 A Few Clouds FEW070 66 64 93% 30.09 1018.5
31 05:53 S 6 10.00 Overcast OVC070 66 63 90% 30.09 1018.4
31 04:53 S 3 10.00 Overcast OVC060 66 64 93% 30.08 1018.1
31 03:53 S 3 10.00 Overcast OVC060 66.9 64 91% 30.08 1018.0
Date Time (edt) Wind (mph) Vis. (mi.) Weather Sky Cond. Air Dwpt Max. Min. Relative Humidity Wind Chill (°F) Heat Index (°F) altimeter (in) sea level (mb) 1 hr 3 hr 6 hr
6 hour
Temperature (ºF) Pressure Precipitation (in)